Weather Service Report


215 
ASUS42 KTBW 010316
RWRFL 
FLORIDA REGIONAL WEATHER ROUNDUP
NATIONAL WEATHER SERVICE TAMPA BAY RUSKIN FL
1100 PM EDT TUE MAR 31 2015

NOTE: "FAIR" INDICATES FEW OR NO CLOUDS BELOW 12,000 FEET WITH NO
SIGNIFICANT WEATHER AND/OR OBSTRUCTIONS TO VISIBILITY.


FLZ001>010-012>015-112-114-115-010400-
PANHANDLE FLORIDA
  
CITY           SKY/WX    TMP DP  RH WIND       PRES   REMARKS
PENSACOLA      CLEAR     69  65  86 SW9       30.07R                  
PENSACOLA NAS  PTCLDY    70  67  90 SW6       30.07R                  
MILTON NAS     PTCLDY    67  65  93 SW9       30.06S                  
CRESTVIEW      CLEAR     67  63  87 S5        30.07S                  
DUKE FIELD     CLEAR     66  63  89 S5        30.05S                  
VALPARAISO     CLEAR     70  65  85 SW12      30.06S                  
MARY ESTHER    CLEAR     70  64  83 SW7       30.06R                  
TRI COUNTY     FAIR      67  63  87 SW7       30.06F                  
PANAMA CITY    FAIR      68  65  90 SW7       30.07R                  
TYNDALL AFB    CLEAR     69  67  93 SW7       30.08R                  
APALACHICOLA   CLEAR     73  67  81 SW10      30.09R                  

STATION/POSITION SKY/WX   TEMP    WIND        PRES    WAVE   SWELL
                          AIR SEA DIR/SP/G            HT/PER HT/PER
                          (F)     (DEG/KT/KT) (MB)    (FT/S) (FT/S)
30.1N   87.6W              71 69  220/ 12/ 14 1017.4R   2/ 7   2/ 7
29.2N   88.2W              72 72  230/  8/  8 1019.3R   2/ 8   2/ 8
28.8N   86.0W              74 75  240/ 17/ 19 1019.5R   2/ 3
PANAMA CITY BEAC           69 68  220/  9/ 11 1017.9R
CAPE SAN BLAS    NOT AVBL
TOWER C                    69     220/ 15/ 15 1019.2R
28.5N   84.5W              71 69  230/  6/  8 1020.1R   2/ 4   2/ 4

$$
FLZ011-016>038-118-127-128-134-139-239-010400-
NORTH FLORIDA
  
CITY           SKY/WX    TMP DP  RH WIND       PRES   REMARKS
MARIANNA       CLEAR     68  63  84 SW9       30.06R                  
TALLAHASSEE    PTCLDY    69  61  75 SW8       30.08R                  
PERRY          CLEAR     67  64  90 SW10      30.09R                  
CROSS CITY       N/A     66  64  93 SW5       30.09R                  
LAKE CITY      FAIR      64  61  88 SW8       30.07R                  
GAINESVILLE    FAIR      66  62  87 SW12      30.08R                  
MAYPORT NAS    PTCLDY    72  61  68 SW13      30.02S                  
JACKSONVILLE   PTCLDY    69  60  73 SW12      30.02S                  
JAX NAS        PTCLDY    74  59  59 SW16      30.04S                  
JAX CRAIG      CLEAR     72  59  63 W12       30.03S                  
JAX CECIL      CLEAR     68  59  73 SW10G16   30.04F                  
FERNANDINA BEA FAIR      75  63  64 SW8       30.01S                  
ST AUGUSTINE   CLEAR     70  62  76 SW7       30.06S                  

STATION/POSITION SKY/WX   TEMP    WIND        PRES    WAVE   SWELL
                          AIR SEA DIR/SP/G            HT/PER HT/PER
                          (F)     (DEG/KT/KT) (MB)    (FT/S) (FT/S)
SHELL POINT                70     230/ 10/ 12   N/A
KEATON BEACH               69     240/ 16/ 17 1018.9R
CEDAR KEY                  70     250/ 11/ 14 1019.9R
FERNANDINA                 72 62  240/ 10/ 13 1015.8R
30.7N   81.3W                 63                N/A     2/ 9
MAYPORT                    73 64  240/ 17/ 21 1016.4R
31.4N   80.9W              64 61  210/ 12/ 16 1015.8F   2/ 4
ST AUGUSTINE               69 61  220/  6/  8 1018.5R

$$
FLZ040-043>046-052-053-057-058-063-144-010400-
INTERIOR CENTRAL FLORIDA
  
CITY           SKY/WX    TMP DP  RH WIND       PRES   REMARKS
OCALA          CLEAR     64  63  94 SW7       30.11R                  
THE VILLAGES     N/A     66  66 100 VRB5      30.01S                  
LEESBURG       CLEAR     68  64  87 W7        30.11R                  
SANFORD        CLEAR     69  62  78 W10       30.09S                  
ORLANDO EXEC   CLEAR     70  62  76 W8        30.10S                  
ORLANDO INTL   PTCLDY    70  63  78 W8        30.11S                  
WINTER HAVEN   FAIR      68  62  81 W6        30.13R                  
LAKELAND       PTCLDY    64  61  88 CALM      30.13S                  
BARTOW         FAIR      68  63  83 W6        30.13S                  
OKEECHOBEE     PTCLDY    66  61  82 CALM      30.12S                  

$$
FLZ041-047-054-059-064-141-147-010400-
EAST CENTRAL FLORIDA
  
CITY           SKY/WX    TMP DP  RH WIND       PRES   REMARKS
DAYTONA BEACH  CLEAR     67  62  84 SW7       30.09R                  
DELAND           N/A    N/A N/A N/A W7        30.10R                  
JFK SPACE CTR  CLEAR     69  61  77 W5        30.07F                  
CAPE CANAVERAL CLEAR     68  64  86 SW6       30.08S                  
PATRICK AFB    PTCLDY    71  63  76 SW5       30.09S                  
MELBOURNE      PTCLDY    70  61  73 SW3       30.10S                  
VERO BEACH     CLOUDY    70  59  68 SW5       30.12R                  
FT PIERCE      MOCLDY    69  59  70 SW7       30.11R                  
STUART         PTCLDY    68  57  68 S6        30.12S                  

STATION/POSITION SKY/WX   TEMP    WIND        PRES    WAVE   SWELL
                          AIR SEA DIR/SP/G            HT/PER HT/PER
                          (F)     (DEG/KT/KT) (MB)    (FT/S) (FT/S)
28.5N   80.2W              73 73  200/ 14/ 16 1018.9R
28.9N   78.5W              73 75  220/ 12/ 14 1019.0R
TRIDENT PIER               71 72  210/  3/  4 1019.4R
28.4N   80.5W                 71                N/A     2/ 3
27.5N   80.2W                 75                N/A     2/11

$$
FLZ050-056-061-142-242-148-248-149-249-151-251-155-255-
160-260-010400-
WEST CENTRAL FLORIDA
  
CITY           SKY/WX    TMP DP  RH WIND       PRES   REMARKS
CRYSTAL RIVER  FAIR      64  63  94 CALM      30.11S                  
INVERNESS      FAIR     N/A N/A N/A CALM      30.12S HAZE             
BROOKSVILLE    CLEAR     63  61  93 SW5       30.13S                  
ZEPHYRHILLS    FAIR      61  61 100 CALM      30.13S                  
CLEARWATER     PTCLDY    67  64  90 W5        30.13R                  
TAMPA INTL     PTCLDY    69  63  81 NW6       30.13S                  
TAMPA EXEC     PTCLDY    66  63  88 CALM      30.13S                  
PLANT CITY     PTCLDY    68  64  88 CALM      30.14S                  
MACDILL AFB    CLEAR     68  67  98 NW6       30.13R                  
PETER O KNIGHT PTCLDY    72  66  83 CALM      30.13R                  
ST PETERSBURG  CLEAR     70  65  84 W5        30.11S                  
SARASOTA       CLEAR     66  64  93 NW7       30.12R                  
VENICE         FAIR      70  66  88 NW8       30.14R                  

STATION/POSITION SKY/WX   TEMP    WIND        PRES    WAVE   SWELL
                          AIR SEA DIR/SP/G            HT/PER HT/PER
                          (F)     (DEG/KT/KT) (MB)    (FT/S) (FT/S)
CEDAR KEY                  70     250/ 11/ 14 1019.9R
28.5N   84.5W              71 69  230/  6/  8 1020.1R   2/ 4   2/ 4
27.3N   84.2W                 72                N/A     1/ 5
CLEARWATER BEACH NOT AVBL
MIDDLE TAMPA BAY           71     310/  8/ 10 1020.1R
VENICE                     71 73  300/ 11/ 11 1019.9R

$$
FLZ066-069-070-075>078-162-262-165-265-010400-
SOUTHWEST FLORIDA AND KEYS
  
CITY           SKY/WX    TMP DP  RH WIND       PRES   REMARKS
PUNTA GORDA    CLEAR     66  63  90 NW7       30.15R                  
FT MYERS       CLEAR     69  63  81 NW5       30.12S                  
SOUTHWEST INTL CLEAR     68  62  81 CALM      30.13R                  
NAPLES         CLEAR     69  63  81 CALM      30.13S                  
MARCO ISLAND   CLEAR     66  61  82 CALM      30.13F                  
IMMOKALEE      CLEAR    N/A N/A N/A CALM      30.14S                  
MARATHON       CLEAR     74  61  63 SE6       30.14R                  
KEY WEST NAS   CLEAR     71  60  68 E7        30.15R                  
KEY WEST INTL  CLEAR     73  61  65 E7        30.15R                  

STATION/POSITION SKY/WX   TEMP    WIND        PRES    WAVE   SWELL
                          AIR SEA DIR/SP/G            HT/PER HT/PER
                          (F)     (DEG/KT/KT) (MB)    (FT/S) (FT/S)
VENICE                     71 73  300/ 11/ 11 1019.9R
NAPLES                     71 75  300/  6/  8 1020.2R
26.0N   85.6W              73 75  130/  6/  8 1020.9R   2/ 8   2/ 8
DRY TORTUGAS               73     130/  4/  5 1020.3R
NW FL BAY                  75     110/  4/  5 1020.5
SAND KEY                   74     120/  8/ 11 1020.6R
SOMBRERO KEY               74     120/ 10/ 10 1021.2R
LONG KEY                   74 74  120/  6/  7 1021.4R
MOLASSES REEF              74 76  150/  8/  9 1020.5R

$$
FLZ067-068-071>074-168-172>174-010400-
SOUTHEAST FLORIDA 
  
CITY           SKY/WX    TMP DP  RH WIND       PRES   REMARKS
W PALM BEACH   CLEAR     71  58  63 S6        30.12R                  
FT LAUDER-EXEC CLEAR     72  60  66 SW5       30.13S                  
FT LAUDERDALE  CLEAR     71  60  68 SW3       30.13R                  
POMPANO BEACH  CLEAR     72  59  63 SW6       30.13R                  
PEMBROKE PINES CLEAR     71  59  65 SW5       30.15R                  
OPA LOCKA      CLEAR     70  59  68 SW6       30.14S                  
MIAMI          PTCLDY    71  58  63 VRB5      30.14S                  
WEST KENDALL   MOCLDY    67  60  78 W3        30.14S                  
HOMESTEAD      CLEAR     66  60  80 CALM      30.14R                  

STATION/POSITION SKY/WX   TEMP    WIND        PRES    WAVE   SWELL
                          AIR SEA DIR/SP/G            HT/PER HT/PER
                          (F)     (DEG/KT/KT) (MB)    (FT/S) (FT/S)
PORT EVERGLADES            74     190/  5/  8 1020.0R
VIRGINIA KEY               74 77  180/  4/  7 1020.0R
LAKE WORTH                 74 78  190/ 11/ 13 1019.5R
SETTLEMENT POINT           74     200/  9/ 10 1020.7S

$$


Return to Home page


Western Regional Climate Center, wrcc@dri.edu